Regional Weather Roundup
Issued by NWS

Home | Current Version | Previous Version | Graphics & Text | Print | Product List | Glossary On
Versions: 1 2 3 4 5 6 7 8 9 10 11 12 13 14 15 16 17 18 19 20 21 22 23 24 25 26 27 28 29 30 31 32 33 34 35 36 37 38 39 40 41 42 43 44 45 46 47 48 49 50
226
ASUS43 KDTX 062210
RWRMI
MICHIGAN HOURLY REGIONAL WEATHER ROUNDUP
NATIONAL WEATHER SERVICE DETROIT/PONTIAC MI
500 PM EST SAT FEB 06 2016

NOTE: "FAIR" INDICATES FEW OR NO CLOUDS BELOW 12,000 FEET WITH NO
SIGNIFICANT WEATHER AND/OR OBSTRUCTION TO VISIBILITY.

MIZ047>049-052>055-059>063-066>070-074>076-081>083-062300-
SOUTHEAST LOWER MICHIGAN

CITY           SKY/WX    TMP DP  RH WIND       PRES   REMARKS
ADRIAN         CLEAR     36  22  56 W7        30.18S WCI  30
ALMA           CLOUDY    34  26  71 SW12G21   30.14R WCI  25
ANN ARBOR      CLEAR     36  23  59 SW9       30.16F WCI  29
BAD AXE        PTCLDY    35  22  58 SW12G23   30.11R WCI  27
CARO           PTCLDY    35  20  53 SW13      30.12R WCI  27
DETROIT CITY   CLOUDY    37  21  52 SW15      30.16F WCI  28
DETROIT        MOCLDY    36  23  59 SW14      30.18F WCI  27
FLINT          CLOUDY    38  19  46 SW15G21   30.14S WCI  29
GROSSE ILE     PTCLDY    36  28  75 S12       30.17F WCI  27
HILLSDALE      MOCLDY    35  18  49 SW10      30.16S WCI  27
HOWELL         PTCLDY    35  20  55 SW12      30.14S WCI  27

CITY           SKY/WX    TMP DP  RH WIND       PRES   REMARKS
JACKSON        CLOUDY    34  19  54 W9        30.15S WCI  27
LAMBERTVILLE   CLEAR     37  23  59 SW10      30.20S WCI  29
LANSING        PTCLDY    35  19  52 SW10      30.16S WCI  27
LAPEER         CLOUDY    36  20  51 W10       30.13R WCI  28
MASON          PTCLDY    33  20  58 SW7       30.15F WCI  27
MONROE         CLEAR     36  24  61 SW12      30.18F WCI  28
MT. CLEMENS    MOCLDY    37  22  53 SW9       30.14S WCI  31
PONTIAC        MOCLDY    37  19  48 SW10      30.12F WCI  30
PORT HOPE        N/A     35  22  58 SW10      30.09R WCI  27
PORT HURON     PTCLDY    36  25  64 S12G17    30.14F WCI  27
TRI CITIES     PTCLDY    35  24  64 SW18      30.13R WCI  24
MIDLAND        CLOUDY    35  22  60 W14       30.12R WCI  25
TROY           MOCLDY    38  22  51 SW9       30.16F WCI  32
SAGINAW HB     MOCLDY    34  27  75 SW16      30.13R WCI  23
$$
MIZ043>046-050>051-056>058-064>065-071>073-077>080-062300-
SOUTHWEST LOWER MICHIGAN

CITY           SKY/WX    TMP DP  RH WIND       PRES   REMARKS
BATTLE CREEK   CLOUDY    35  21  56 W12       30.16S WCI  27
BENTON HARBOR  CLOUDY    37  27  67 SW10      30.17F WCI  30
BIG RAPIDS     CLOUDY    32  28  84 W9        30.10R WCI  24
COLDWATER      CLEAR     36  22  58 SW12      30.17S WCI  27
FREMONT        CLOUDY    32  28  83 SW7       30.12S WCI  26
HOLLAND        CLOUDY    34  26  72 SW14      30.16F WCI  25
GRAND RAPIDS   CLOUDY    33  26  75 SW13      30.15F WCI  24
IONIA          CLOUDY    33  25  72 W14       30.14S WCI  23
KALAMAZOO      CLOUDY    36  22  56 SW10      30.17S WCI  28
LUDINGTON      CLOUDY    32  27  82 W9        30.11S WCI  24
MARSHALL       CLOUDY    35  21  56 SW10      30.16S WCI  27
MOUNT PLEASANT CLOUDY    34  24  67 SW13G21   30.11S WCI  25
MUSKEGON       CLOUDY    35  26  69 SW13      30.13F WCI  26
SOUTH HAVEN    CLOUDY    36  28  73 SW8       30.17S WCI  29
$$
MIZ016>042-062300-
NORTHERN LOWER MICHIGAN

CITY           SKY/WX    TMP DP  RH WIND       PRES   REMARKS
ALPENA         CLOUDY    31  23  72 W8        30.07R WCI  23
BEAVER ISLAND  CLOUDY    29  22  75 SW12      30.05S WCI  19
BELLAIRE       CLOUDY    31  25  80 SW7       30.09S WCI  24
CADILLAC       CLOUDY    29  26  86 SW7       30.06R WCI  22
CHARLEVOIX     CLOUDY    30  25  79 SW9       30.10R WCI  22
FRANKFORT      CLOUDY    31  24  76 SW6       30.09S WCI  25
GAYLORD        CLOUDY    27  24  89 W10       30.04R FOG     WCI  17
GRAYLING       CLOUDY    29  25  84 SW6       30.07R WCI  23
HARBOR SPRINGS CLOUDY    30  24  79 SW12      30.06R WCI  20
HOUGHTON LAKE  CLOUDY    30  24  78 W9        30.07S WCI  22
MANISTEE       CLOUDY    30  23  74 SW6       30.10S WCI  24
OSCODA         CLOUDY    34  23  65 W13       30.08R WCI  25
PELLSTON       CLOUDY    29  20  69 W6        30.06R WCI  23
ROGERS CITY    CLOUDY    30  22  72 W9        30.07R WCI  22
TRAVERSE CITY  CLOUDY    31  24  75 W7        30.07S WCI  24
$$
MIZ007>008-015-062300-
EASTERN UPPER MICHIGAN

CITY           SKY/WX    TMP DP  RH WIND       PRES   REMARKS
KINROSS        CLOUDY    30  25  80 W7        30.01S WCI  23
MACKINAC ISLAN CLOUDY    28  22  76 SW10G21   30.03S WCI  19
NEWBERRY       CLOUDY    29  20  69 SW8       30.00S WCI  21
S. S. MARIE    FLURRIES  29  22  75 SW6       30.01R WCI  23
MUNISING         N/A     33  18  53 S3        29.99S
$$
MIZ004>006-011>014-085-062300-
CENTRAL UPPER MICHIGAN

CITY           SKY/WX    TMP DP  RH WIND       PRES   REMARKS
MANISTIQUE     CLOUDY    29  21  72 S9        30.02S WCI  21
ESCANABA       CLOUDY    30  21  69 SW7       30.03S WCI  23
MENOMINEE      CLOUDY    30  21  69 SW8       30.04F WCI  23
SAWYER-GWINN   CLOUDY    30  19  64 SW9       29.96S WCI  22
$$
MIZ001>003-009>011-084-062300-
WESTERN UPPER MICHIGAN

CITY           SKY/WX    TMP DP  RH WIND       PRES   REMARKS
IRON MOUNTAIN  CLOUDY    30  20  66 S8        29.97F WCI  22
HOUGHTON       CLOUDY    28  18  66 S7        29.91F WCI  21
COPPER HARBOR    N/A     27  24  89 CALM      29.95S
IRONWOOD       CLOUDY    34  21  60 S9G17     29.85F WCI  26
$$

ABBREVIATIONS USED IN REMARKS
   TC - TEMPERATURE IN CELSIUS
  WCI - WIND CHILL INDEX
   HX - HEAT INDEX
  VSB - VISIBILITY





USA.gov is the U.S. government's official web portal to all federal, state and local government web resources and services.